Flag for U.S.A. Weather past 2 weeks in Buffalo, New York, U.S.A.

Now
14 °F

Passing clouds.


Feels Like: 4 °F
Forecast: 5 / 20 °F
Wind: 7 mph from West

Location: Greater Buffalo International Airport

Current Time: Jan 27, 2015 at 9:10:16 PM

Latest Report: Jan 27, 2015 at 7:54 PM


Visibility: 10 mi

Pressure: 30.13 "Hg

Humidity: 71%

Dew point: 6 °F

Location of BuffaloLocation

Historic Weather in Buffalo — Graph

°F

Buffalo temperature yesterday

Maximum temperature yesterday: 19 °F (at 1:54 PM)
Minimum temperature yesterday: 13 °F (at 5:54 AM)
Average temperature yesterday: 16 °F

Past Weeks' High & Low Weather Summary

 TemperatureHumidityPressure
High44 °F (Jan 18, 2:54 AM)93% (Jan 24, 3:54 PM)30.81 "Hg (Jan 24, 3:54 PM)
Low-2 °F (Jan 14, 2:54 AM)43% (Jan 16, 12:54 PM)29.47 "Hg (Jan 24, 3:02 PM)
Average21 °F73%30.07 "Hg
* Reported Jan 12 7:54 PM — Jan 27 7:54 PM, Buffalo, Weather by CustomWeather, © 2014

Note: Actual official high and low records may vary slightly from our data, if they occured in-between our weather recording intervals... More about our weather records

Advertising

Buffalo weather history for previous 24 hours

 ConditionsComfort  
Time TempWeatherWind HumidityBarometerVisibility
7:54 PM
Jan 27
14 °FPassing clouds.7 mph71%30.13 "Hg10 mi
6:54 PM14 °FPassing clouds.3 mph64%30.13 "Hg10 mi
5:54 PM15 °FPassing clouds.No wind58%30.12 "Hg10 mi
4:54 PM15 °FScattered clouds.7 mph58%30.11 "Hg10 mi
3:54 PM17 °FPartly sunny.13 mph59%30.09 "Hg10 mi
2:54 PM18 °FPartly sunny.8 mph59%30.06 "Hg10 mi
1:54 PM17 °FPartly sunny.7 mph62%30.04 "Hg10 mi
12:54 PM17 °FLight snow. Broken clouds.8 mph64%30.04 "Hg10 mi
11:54 AM16 °FLight snow. Broken clouds.13 mph67%30.05 "Hg10 mi
10:54 AM16 °FLight snow. Partly sunny.14 mph71%30.06 "Hg10 mi
9:54 AM14 °FLight snow. Mostly cloudy.13 mph77%30.05 "Hg4 mi
8:54 AM14 °FLight snow. More clouds than sun.8 mph80%30.04 "Hg4 mi
7:54 AM14 °FLight snow. Overcast.8 mph77%30.03 "Hg5 mi
6:54 AM14 °FLight snow. Mostly cloudy.13 mph80%30.01 "Hg3 mi
5:54 AM16 °FLight snow. Overcast.14 mph80%29.99 "Hg3 mi
4:54 AM16 °FLight snow. Ice fog.16 mph84%29.97 "Hg5 mi
4:03 AM16 °FLight snow. Mostly cloudy.12 mph80%29.92 "Hg7 mi
3:54 AM16 °FLight snow. Overcast.9 mph84%29.96 "Hg7 mi
2:54 AM16 °FLight snow. Overcast.9 mph80%29.95 "Hg4 mi
1:54 AM16 °FLight snow. Mostly cloudy.9 mph80%29.93 "Hg5 mi
12:54 AM16 °FLight snow. Overcast.10 mph80%29.94 "Hg4 mi
11:54 PM
Jan 26
16 °FLight snow. Mostly cloudy.12 mph80%29.96 "Hg7 mi
10:54 PM16 °FLight snow. Overcast.10 mph80%29.97 "Hg2 mi
9:54 PM16 °FLight snow. Ice fog.12 mph84%29.96 "Hg2 mi
Weather by CustomWeather, © 2014

See weather overviewHow to use our weather pages